Location: *
(43.4667°N, 11.6833°E)
Time: 22:53:00
(UTC+00:00)

Cosmos 1072 Rocket - Pass Details

Date: 19 July 2019
Orbit: 949 x 1008 km, 82.9° (Epoch: 24 August)

Event Time Altitude Azimuth Distance (km) Brightness Sun altitude
Rises 19:41:19 0° 180° (S) 3,627 7.1 -8.6°
Reaches altitude 10° 19:43:49 10° 179° (S) 2,679 6.4 -8.9°
Maximum altitude 19:49:55 75° 95° (E) 985 4.4 -9.8°
Drops below altitude 10° 19:56:01 10° 11° (N) 2,683 7.2 -10.6°
Sets 19:58:31 0° 10° (N) 3,633 8.0 -10.9°
